RH
84 84 84 84 85 84 83 80 78 77 76 76 76 74 73 72 71 70 69 68 69 69 69 70 71 71 72 72 72 71 71 70 69 67 65 64 63 62 62 62 63 64 65 64 62 60 60 61 61 61 61 60 58 57 56 59 63 67 68 70 71 71 71 71 70 67 64 62 62 63 65 65 65 63 61 59 59 58 55 52 49 45 42 40 41 43
84 85 85 85 85 84 83 81 80 80 79 78 77 76 75 73 72 71 70 70 70 70 71 72 72 72 72 72 71 70 70 69 66 64 61 61 60 61 62 63 64 64 63 62 62 61 61 62 62 62 61 60 58 56 55 58 62 67 69 70 71 72 72 71 69 67 64 61 61 62 64 64 63 61 58 57 56 55 53 50 47 44 41 41 42 44
83 84 85 85 84 84 82 81 81 80 80 79 78 76 75 74 73 72 71 71 71 72 73 73 73 72 72 71 70 69 69 66 63 60 58 58 60 61 62 62 61 61 61 61 61 62 62 62 62 62 61 60 58 56 55 58 62 67 69 71 71 71 71 70 68 66 63 61 60 61 63 62 60 58 56 55 54 53 50 48 45 42 41 42 44 45
80 82 83 82 81 81 80 79 79 78 78 78 77 76 75 74 74 73 73 73 73 73 73 73 72 72 71 70 69 68 66 64 61 58 57 57 58 59 59 59 59 59 60 61 62 62 62 62 62 61 60 59 57 56 56 59 63 66 69 70 71 71 70 68 67 65 63 61 60 61 61 59 57 55 53 53 52 50 48 46 44 42 41 43 44 45
79 80 80 80 79 78 77 77 77 77 76 76 76 76 75 75 75 74 74 74 74 73 73 72 71 70 69 68 67 65 63 60 58 57 56 56 56 57 57 58 59 60 60 61 62 62 63 63 62 61 60 59 58 57 57 60 63 66 68 69 70 70 69 67 65 63 62 60 59 58 58 56 54 52 51 51 50 49 47 45 43 41 41 44 45 45
79 79 79 78 78 77 76 76 76 76 76 76 76 76 76 76 76 75 75 74 73 73 72 71 69 68 67 65 63 60 58 56 55 55 56 57 58 59 60 61 62 62 62 62 62 62 62 62 61 61 61 60 58 58 58 61 64 66 67 68 68 68 66 64 62 61 59 57 56 55 54 52 51 50 50 49 48 47 46 44 42 41 42 44 44 43
80 80 79 78 77 76 76 77 77 77 77 77 77 77 76 76 76 75 75 74 73 71 70 69 67 65 63 61 58 56 53 53 54 56 59 61 63 63 64 63 63 62 62 62 62 61 61 61 61 61 61 61 60 60 61 63 64 65 66 66 66 65 63 62 60 58 56 54 52 51 49 49 49 49 49 48 47 46 45 43 42 42 43 44 44 42
81 79 78 77 76 76 76 77 78 78 78 77 77 77 76 76 76 75 74 72 71 69 67 65 63 61 59 57 54 53 51 54 57 60 62 64 64 64 63 63 62 62 62 61 61 61 60 60 61 61 62 62 62 62 64 64 65 65 66 65 64 63 61 60 58 56 53 50 48 47 46 46 47 48 48 47 47 46 44 43 42 42 43 44 43 41
77 76 76 75 76 76 77 77 78 78 78 77 77 77 76 76 75 74 72 71 69 66 64 61 59 57 56 54 52 51 52 55 59 62 64 64 63 63 62 62 61 61 61 61 60 60 60 60 60 61 62 63 63 64 65 65 65 66 65 64 62 61 60 59 56 53 49 47 45 45 44 45 46 47 47 46 46 45 44 43 42 43 44 43 41 39
71 72 72 73 74 76 77 77 77 77 77 77 76 76 75 74 73 72 70 68 66 63 60 58 56 55 53 52 52 52 52 56 59 62 63 63 62 62 61 61 60 60 60 60 59 59 59 60 60 61 63 64 65 65 66 65 65 65 64 63 61 60 59 57 53 50 47 45 44 43 42 43 44 45 45 45 44 44 44 43 42 42 43 42 40 38
68 69 70 71 73 75 77 77 77 77 77 76 76 75 74 73 72 69 67 65 63 60 57 56 54 53 52 51 51 52 53 55 58 59 60 61 60 60 59 59 59 59 59 59 59 59 59 60 61 62 64 65 65 66 66 65 65 64 63 62 61 60 58 53 50 48 47 44 42 40 39 41 42 43 43 43 43 43 43 42 42 41 42 40 39 37
67 68 69 70 72 75 77 77 77 76 76 75 74 73 72 71 69 66 63 61 59 57 55 53 52 52 51 50 50 51 52 53 54 56 56 57 57 57 57 57 57 57 58 58 59 59 60 61 62 63 65 66 66 66 65 65 64 63 62 61 60 57 53 49 48 48 46 42 39 37 36 38 39 41 41 42 42 42 42 41 40 40 40 39 37 36
66 67 68 69 71 73 75 76 75 75 75 74 72 71 69 67 65 62 60 58 56 54 52 51 50 50 49 49 49 49 49 50 51 52 53 54 54 54 55 55 56 57 58 59 60 60 61 62 64 65 66 66 66 65 65 64 63 62 62 60 57 52 46 46 46 46 43 39 37 35 34 35 36 37 39 40 40 40 40 40 40 39 39 38 37 36
65 66 66 68 69 71 72 73 72 72 71 70 69 67 65 63 60 58 56 55 54 53 51 50 50 49 49 48 48 49 50 51 52 53 54 54 55 55 55 56 57 58 59 60 61 61 62 64 65 66 66 66 66 65 65 64 63 62 60 56 50 45 41 44 45 43 39 36 35 33 33 33 33 35 38 39 40 39 39 39 39 39 38 37 37 36
63 64 65 66 67 68 68 68 68 67 67 66 64 63 61 59 57 55 54 53 53 52 52 51 51 51 51 51 51 52 53 54 55 56 56 56 56 56 56 57 57 59 60 61 63 63 64 65 67 67 67 66 66 65 65 64 62 60 55 49 43 39 39 43 43 40 36 34 33 33 32 33 34 36 39 39 39 39 39 39 39 38 38 38 37 37
62 62 63 64 64 64 65 64 63 63 62 61 60 58 57 56 55 54 53 52 52 52 52 51 52 52 53 53 54 55 56 56 57 57 57 56 56 56 56 57 58 59 61 63 64 65 66 67 68 68 68 67 66 66 65 64 60 55 48 41 36 36 40 43 42 38 35 35 35 35 36 36 37 39 39 39 39 39 39 39 39 38 38 38 38 38
61 61 62 62 62 62 62 60 59 59 58 57 56 55 54 54 53 53 52 52 52 51 51 51 52 52 52 52 53 54 55 57 57 57 57 56 56 55 55 57 59 60 62 64 66 67 68 69 69 69 69 69 68 67 66 63 57 50 41 35 33 34 39 40 39 37 35 36 37 38 39 39 39 39 40 40 40 39 39 39 39 39 38 39 39 39
60 60 60 60 61 60 59 58 57 56 56 55 55 54 53 53 53 52 52 51 51 51 51 50 50 50 51 51 51 52 53 55 56 57 57 56 55 55 55 57 59 62 64 66 68 69 70 71 71 71 71 70 70 69 67 62 54 45 36 32 32 33 36 36 35 35 35 37 39 39 39 40 40 40 40 40 40 40 40 39 39 39 39 39 39 39
60 60 60 59 59 58 57 56 55 55 55 54 54 54 53 53 52 52 51 51 51 51 51 50 50 50 50 49 49 50 52 53 55 55 56 56 56 55 56 58 61 63 66 68 69 70 71 72 72 72 73 72 72 70 67 59 50 40 33 31 31 32 33 33 33 34 36 38 39 39 39 39 39 40 40 40 40 40 40 40 40 39 40 39 40 40
59 60 60 59 58 57 56 55 54 54 54 55 54 54 54 53 52 52 51 50 50 50 50 50 50 50 49 49 50 51 51 53 54 55 56 56 56 57 57 60 63 65 67 69 70 71 73 73 73 74 74 74 73 70 66 56 46 38 33 32 31 32 32 32 34 36 39 39 39 39 39 39 39 39 40 40 40 40 40 40 40 40 40 40 40 40
58 58 57 56 56 56 55 54 54 54 55 55 55 55 54 53 52 52 51 51 51 51 51 51 50 50 49 50 50 51 52 53 55 56 57 58 58 59 59 62 65 67 69 71 72 73 74 74 75 76 76 75 73 70 63 52 43 36 33 33 33 32 32 33 37 41 44 42 40 39 39 39 39 39 40 40 40 40 40 40 40 40 40 40 40 40
57 57 57 56 55 55 54 54 55 55 56 56 55 55 54 53 53 52 52 52 52 52 51 51 50 49 49 50 51 52 53 54 56 57 58 60 61 61 61 64 67 69 71 72 73 74 75 76 76 77 77 76 73 68 61 50 42 37 35 35 35 34 34 36 41 46 48 44 41 39 39 39 39 40 40 40 40 40 40 40 40 40 40 40 40 40
56 56 56 55 55 55 55 55 55 55 56 55 55 54 53 53 52 52 52 52 52 51 51 50 50 49 50 50 51 53 53 55 56 58 60 62 63 64 64 66 69 71 73 74 75 76 77 77 78 77 77 75 71 66 59 50 44 40 38 38 37 37 36 39 43 46 47 43 41 40 40 40 40 40 40 40 40 41 41 41 41 41 41 41 41 40
56 56 56 55 55 55 55 55 56 55 55 55 54 54 53 53 52 52 52 52 52 51 50 50 50 50 50 51 52 53 54 55 56 58 61 63 65 66 67 69 71 73 75 76 77 78 78 78 78 77 76 74 70 66 59 53 48 44 41 39 38 38 37 40 42 44 43 41 40 40 40 40 40 40 40 40 41 41 41 41 41 41 41 41 41 41
56 56 56 56 56 56 56 56 56 55 55 54 54 54 53 53 52 52 52 52 51 50 50 49 50 50 50 51 53 54 54 56 58 60 62 65 67 69 70 71 73 76 77 77 78 78 78 78 78 77 76 73 70 66 61 56 51 46 41 39 37 37 37 39 41 41 41 40 40 40 40 40 40 40 40 41 41 41 41 42 42 42 41 41 41 41
56 57 57 57 57 57 57 57 56 55 55 54 54 53 53 52 52 52 51 51 50 49 49 49 50 50 50 52 53 54 55 57 59 62 65 68 70 72 72 74 76 77 78 78 78 78 78 78 78 77 75 72 69 66 63 57 51 45 41 38 37 37 38 39 40 40 40 40 40 39 39 40 40 40 41 41 41 42 42 42 42 42 42 42 42 42
58 58 58 58 58 58 58 57 56 56 55 54 54 53 53 52 52 52 51 50 49 49 49 50 50 51 51 53 54 56 57 60 62 65 67 70 73 75 75 76 77 78 78 78 77 77 78 78 77 75 72 68 65 62 59 54 48 43 40 40 39 39 40 40 40 40 40 39 39 39 39 40 40 41 41 42 42 43 43 43 43 44 44 44 45 45
59 59 59 60 59 59 58 58 57 56 55 54 53 53 53 52 52 51 50 49 48 49 50 50 51 52 53 54 56 58 60 62 65 67 70 73 75 76 76 77 77 78 78 77 77 76 77 75 73 68 63 59 57 55 51 47 43 41 40 40 40 40 40 40 40 40 39 39 39 39 40 41 41 42 43 44 44 45 45 46 46 47 47 48 48 49
61 61 61 61 61 60 59 58 57 56 55 54 53 53 53 52 51 50 49 48 49 49 50 51 52 53 55 57 59 61 63 66 68 70 72 75 76 76 76 77 77 77 76 76 75 74 72 68 63 58 53 51 49 47 44 41 40 40 40 40 41 41 41 40 40 40 40 40 40 41 42 43 44 46 46 47 48 49 49 50 50 51 51 52 53 53
63 63 63 63 62 61 60 59 58 57 55 54 54 53 53 52 51 49 48 48 49 50 51 52 54 55 58 60 63 65 67 68 70 71 74 75 75 75 75 76 76 75 74 72 71 69 65 59 53 49 46 44 43 41 39 39 39 39 40 41 41 41 41 41 41 41 41 42 43 45 46 47 49 50 51 51 52 52 53 54 54 54 55 55 55 55
66 66 65 64 63 62 61 60 59 57 56 55 54 54 53 51 50 49 48 49 50 52 53 54 56 58 61 64 67 69 70 71 71 72 73 74 74 74 75 75 73 71 68 66 65 62 58 52 47 44 42 41 40 39 38 38 39 39 41 41 42 42 43 43 43 44 45 46 47 49 51 52 53 53 54 55 55 55 55 56 56 56 56 55 55 55
68 68 67 66 65 63 62 61 59 58 56 56 54 54 52 51 49 49 49 50 52 54 56 57 59 62 65 68 70 72 72 72 72 72 73 73 73 73 73 71 68 64 60 59 58 56 53 49 45 42 41 40 39 39 38 38 39 41 42 44 45 45 46 47 47 48 49 50 52 53 54 55 55 55 56 56 55 55 55 55 55 54 54 54 54 54
71 70 69 67 66 65 63 62 60 58 57 56 55 53 52 50 50 50 51 53 54 57 59 61 63 66 69 71 72 72 72 72 71 71 70 70 70 70 68 66 62 59 56 55 54 52 50 47 44 43 42 41 40 39 39 40 42 44 46 47 48 49 50 51 51 52 53 53 54 55 55 55 55 55 55 54 54 53 53 53 53 53 53 53 53 54
73 72 71 69 68 66 64 63 61 59 58 56 55 53 52 51 51 53 54 56 58 60 62 65 67 69 71 72 72 71 71 70 69 68 67 66 65 64 62 60 58 55 54 54 53 51 49 47 45 44 43 43 42 42 42 44 46 47 49 51 52 53 53 54 54 54 54 54 54 54 54 53 53 53 52 52 52 52 52 52 52 53 54 54 55 55
75 74 72 71 69 67 66 63 62 60 58 57 55 53 52 52 53 55 57 59 61 63 66 68 69 71 71 71 70 68 67 66 65 63 62 61 61 60 59 57 56 55 55 54 52 50 48 47 46 46 45 45 45 46 47 48 50 51 52 53 54 54 54 54 53 53 52 52 52 52 51 51 51 51 51 51 52 52 53 54 54 55 56 56 56 56
77 75 74 72 70 68 66 64 62 61 59 57 55 54 53 54 56 58 60 62 64 66 68 69 70 70 69 67 65 63 62 61 60 59 57 58 58 58 58 57 56 55 55 54 52 49 48 48 48 48 49 49 49 50 51 51 52 52 53 53 53 53 52 52 51 51 50 50 50 50 50 50 51 51 52 53 54 55 55 56 57 57 57 57 56 56
78 77 75 73 71 69 67 65 63 61 60 58 56 55 55 56 58 61 62 64 66 68 70 70 69 67 65 63 61 59 57 56 55 55 55 56 58 58 58 57 56 55 54 52 50 49 48 49 50 51 51 52 52 52 53 53 52 52 52 51 51 51 51 50 50 50 50 50 51 51 52 53 54 54 55 56 56 57 57 57 57 57 57 56 55 54
79 78 76 74 72 70 68 66 64 62 60 59 57 57 57 59 60 62 64 67 68 70 70 69 67 64 61 59 57 55 54 53 52 52 54 56 58 59 58 57 56 55 53 51 50 50 50 51 51 52 53 53 53 53 52 52 52 51 51 50 50 51 51 51 52 52 53 54 55 55 56 56 57 57 58 58 58 58 58 58 57 56 55 53 52 50
80 78 76 74 72 70 68 66 64 62 60 59 58 58 58 60 61 64 66 68 70 70 69 67 64 61 58 55 53 52 50 49 49 51 54 56 58 58 58 57 56 54 53 52 52 51 52 52 52 52 53 53 52 52 51 51 51 51 51 51 52 52 53 54 55 57 58 58 59 59 60 60 60 60 60 60 59 59 58 57 56 54 52 49 46 43
81 78 76 74 72 69 67 65 63 61 59 59 58 58 58 60 62 65 68 69 70 70 68 65 62 58 55 53 51 49 48 47 49 51 54 56 57 57 56 55 55 54 53 53 53 53 53 52 52 52 52 52 52 52 52 52 53 53 53 53 54 54 55 57 59 60 61 62 62 62 62 62 61 61 60 60 59 58 57 55 53 50 47 44 40 37
81 78 76 73 71 68 66 63 61 59 57 56 56 57 58 60 63 66 70 71 71 69 67 63 60 56 53 51 50 49 48 49 50 52 54 55 55 55 55 54 54 53 53 53 53 53 52 52 51 51 51 51 52 52 53 53 54 54 54 55 55 56 58 59 61 63 64 64 64 63 62 62 61 61 60 59 58 56 54 51 48 45 41 37 34 32
81 78 75 72 69 67 64 61 58 56 54 53 54 54 56 59 63 66 69 69 68 66 64 60 57 53 50 49 49 49 50 51 52 53 54 53 53 53 53 53 53 53 53 53 53 52 52 52 51 51 52 52 52 53 53 53 53 54 54 55 56 58 60 62 63 64 64 64 63 63 62 61 61 60 59 57 55 53 50 46 43 39 36 34 32 30
80 77 73 70 68 65 62 58 55 53 51 51 51 52 54 58 62 66 68 66 64 61 58 56 53 50 48 47 48 49 51 52 53 53 53 52 52 52 52 53 53 53 53 53 52 52 51 51 51 51 52 52 52 52 52 52 53 54 55 57 58 60 63 64 64 64 64 64 63 62 61 60 60 58 57 54 51 48 44 41 38 36 34 33 31 30
79 75 72 69 66 63 59 55 52 50 49 48 49 50 53 57 61 64 65 63 59 56 53 51 50 48 47 46 47 48 49 51 51 52 51 51 51 52 52 52 53 53 52 52 52 52 51 51 51 51 51 52 52 52 52 53 54 56 58 59 61 63 64 65 65 65 64 63 62 61 60 59 57 56 53 50 47 43 40 38 36 34 33 32 32 30
77 74 71 68 64 61 56 52 49 47 46 45 45 48 52 56 59 61 60 57 54 50 48 48 47 47 46 45 45 46 47 49 50 50 51 51 52 52 52 52 52 52 51 51 51 52 52 52 52 51 51 52 52 53 54 56 57 59 60 62 63 64 65 65 65 65 64 62 61 60 58 56 54 52 49 46 42 39 37 36 34 33 33 32 31 29
76 72 69 66 62 58 54 50 47 45 43 43 44 46 50 54 56 56 54 51 47 45 44 45 46 46 45 44 45 45 46 48 49 50 51 51 52 52 52 52 52 51 51 51 51 51 52 52 52 52 53 53 55 56 58 59 60 61 62 64 64 65 66 66 65 64 63 61 60 58 55 53 50 47 44 41 39 37 36 35 34 33 31 30 29 28
74 71 68 65 61 57 52 49 46 44 42 41 42 45 49 51 52 51 48 45 43 42 42 44 46 46 45 45 45 45 46 48 49 50 51 52 52 52 52 52 51 51 50 50 51 51 51 52 53 54 55 56 58 59 60 61 62 63 63 64 65 65 65 65 64 63 61 60 57 55 52 49 46 43 40 39 37 36 35 34 32 31 30 29 27 26
73 70 67 63 59 55 52 49 46 43 41 40 41 44 48 49 48 47 44 41 40 40 43 45 47 47 47 47 47 47 48 49 50 51 52 52 52 52 51 51 51 50 50 50 50 51 52 53 54 56 58 59 60 62 62 62 63 64 64 65 65 65 64 63 62 61 59 57 55 52 49 46 43 40 38 37 36 35 34 32 31 29 28 27 26 25
73 70 66 62 58 55 51 48 45 42 40 40 41 44 47 47 46 45 42 40 39 41 45 47 48 48 49 49 49 49 50 51 52 52 52 52 52 51 51 50 50 50 49 49 50 51 52 54 56 58 60 61 62 63 63 63 64 64 65 65 64 64 63 62 60 59 57 55 52 49 46 43 41 39 37 36 35 34 33 31 29 27 26 25 25 25
73 69 66 62 58 54 50 46 44 42 40 41 43 46 48 47 47 45 42 40 41 43 47 49 50 50 50 51 51 51 52 52 52 52 52 52 51 51 51 50 50 49 50 50 51 52 54 56 58 60 62 63 64 64 64 64 64 64 65 64 64 63 62 60 59 57 55 52 49 46 43 41 39 38 37 35 34 32 31 29 27 25 25 25 25 25
73 70 66 62 58 53 49 46 43 42 42 43 46 48 49 49 48 46 43 42 43 46 49 51 51 51 52 52 52 53 53 53 53 52 52 52 51 51 51 50 50 50 51 52 53 55 56 59 61 62 63 64 65 65 65 64 64 64 64 64 63 62 61 59 58 55 53 50 47 44 42 40 38 37 35 34 32 30 29 27 25 24 24 25 25 25